• In Russia
  • List of Countries
  • For 7 days
  • Water Temperature
  • Weather Map
  • Weather Widgets
  • user-avatar
    Login

    Hourly Weather Oran

    Today, 25 May, Monday

    Time Temperature Precipitation Wind Pressure Humidity
    00:00 +21°C° 0 mm 3 mps 757 mmHg 83%
    01:00 +20°C° 0 mm 3 mps 757 mmHg 85%
    02:00 +20°C° 0 mm 3 mps 756 mmHg 87%
    03:00 +20°C° 0 mm 3 mps 756 mmHg 89%
    04:00 +20°C° 0 mm 3 mps 756 mmHg 88%
    05:00 +20°C° 0 mm 3 mps 756 mmHg 87%
    06:00 +20°C° 0 mm 3 mps 757 mmHg 85%
    07:00 +21°C° 0 mm 3 mps 757 mmHg 80%
    08:00 +22°C° 0 mm 3 mps 757 mmHg 75%
    09:00 +24°C° 0 mm 3 mps 757 mmHg 69%
    10:00 +25°C° 0 mm 3 mps 757 mmHg 65%
    11:00 +27°C° 0 mm 4 mps 756 mmHg 60%
    12:00 +28°C° 0 mm 4 mps 756 mmHg 55%
    13:00 +28°C° 0 mm 5 mps 756 mmHg 56%
    14:00 +28°C° 0 mm 5 mps 756 mmHg 57%
    15:00 +28°C° 0 mm 5 mps 755 mmHg 57%
    16:00 +27°C° 0 mm 5 mps 755 mmHg 59%
    17:00 +26°C° 0 mm 5 mps 755 mmHg 60%
    18:00 +26°C° 0 mm 5 mps 755 mmHg 61%
    19:00 +25°C° 0 mm 4 mps 755 mmHg 63%
    20:00 +23°C° 0 mm 4 mps 755 mmHg 65%
    21:00 +24°C° 0 mm 3 mps 755 mmHg 66%
    22:00 +22°C° 0 mm 3 mps 755 mmHg 68%
    23:00 +22°C° 0 mm 3 mps 755 mmHg 70%

    Tomorrow, 26 May, Tuesday

    Time Temperature Precipitation Wind Pressure Humidity
    00:00 +21°C° 0 mm 4 mps 755 mmHg 72%
    01:00 +21°C° 0 mm 4 mps 755 mmHg 75%
    02:00 +20°C° 0 mm 4 mps 755 mmHg 78%
    03:00 +20°C° 0 mm 3 mps 755 mmHg 81%
    04:00 +20°C° 0 mm 3 mps 755 mmHg 79%
    05:00 +20°C° 0 mm 3 mps 755 mmHg 78%
    06:00 +21°C° 0 mm 3 mps 755 mmHg 76%
    07:00 +22°C° 0 mm 3 mps 755 mmHg 70%
    08:00 +23°C° 0 mm 4 mps 755 mmHg 63%
    09:00 +26°C° 0 mm 4 mps 755 mmHg 57%
    10:00 +27°C° 0 mm 5 mps 755 mmHg 53%
    11:00 +29°C° 0 mm 6 mps 755 mmHg 48%
    12:00 +30°C° 0 mm 7 mps 755 mmHg 44%
    13:00 +30°C° 0 mm 7 mps 754 mmHg 45%
    14:00 +31°C° 0 mm 8 mps 754 mmHg 46%
    15:00 +29°C° 0 mm 8 mps 754 mmHg 47%
    16:00 +28°C° 0 mm 8 mps 753 mmHg 50%
    17:00 +27°C° 0 mm 7 mps 753 mmHg 53%
    18:00 +26°C° 0 mm 7 mps 753 mmHg 55%
    19:00 +24°C° 0 mm 6 mps 754 mmHg 59%
    20:00 +25°C° 0 mm 5 mps 754 mmHg 62%
    21:00 +23°C° 0 mm 4 mps 754 mmHg 65%
    22:00 +23°C° 0 mm 4 mps 754 mmHg 68%
    23:00 +22°C° 0 mm 4 mps 754 mmHg 70%

    Day after tomorrow, 27 May, Wednesday

    Time Temperature Precipitation Wind Pressure Humidity
    00:00 +22°C° 0 mm 5 mps 754 mmHg 73%
    01:00 +21°C° 0.2 mm 4 mps 754 mmHg 76%
    02:00 +21°C° 0.2 mm 4 mps 754 mmHg 79%
    03:00 +21°C° 0.2 mm 3 mps 754 mmHg 82%
    04:00 +21°C° 0.3 mm 4 mps 754 mmHg 81%
    05:00 +21°C° 0.3 mm 4 mps 754 mmHg 80%
    06:00 +21°C° 0.3 mm 5 mps 754 mmHg 80%
    07:00 +23°C° 0.1 mm 5 mps 754 mmHg 71%
    08:00 +25°C° 0.1 mm 5 mps 754 mmHg 63%
    09:00 +27°C° 0.1 mm 5 mps 754 mmHg 54%
    10:00 +28°C° 0.1 mm 7 mps 754 mmHg 52%
    11:00 +29°C° 0.1 mm 8 mps 754 mmHg 50%
    12:00 +29°C° 0.1 mm 9 mps 754 mmHg 48%
    13:00 +29°C° 0 mm 9 mps 754 mmHg 48%
    14:00 +29°C° 0 mm 9 mps 753 mmHg 48%
    15:00 +29°C° 0 mm 9 mps 753 mmHg 48%
    16:00 +28°C° 0 mm 9 mps 753 mmHg 50%
    17:00 +27°C° 0 mm 8 mps 753 mmHg 52%
    18:00 +26°C° 0 mm 8 mps 753 mmHg 55%
    19:00 +24°C° 0.1 mm 7 mps 753 mmHg 59%
    20:00 +23°C° 0.1 mm 6 mps 754 mmHg 63%
    21:00 +22°C° 0.1 mm 4 mps 755 mmHg 68%
    22:00 +22°C° 0.1 mm 5 mps 754 mmHg 71%
    23:00 +21°C° 0.1 mm 5 mps 754 mmHg 73%

    28 May, Thursday

    Time Temperature Precipitation Wind Pressure Humidity
    00:00 +21°C° 0.1 mm 5 mps 754 mmHg 76%
    01:00 +21°C° 0.1 mm 5 mps 753 mmHg 78%
    02:00 +20°C° 0.1 mm 5 mps 753 mmHg 81%
    03:00 +20°C° 0.1 mm 5 mps 753 mmHg 83%
    04:00 +20°C° 0.1 mm 6 mps 753 mmHg 83%
    05:00 +20°C° 0.1 mm 6 mps 753 mmHg 84%
    06:00 +20°C° 0.1 mm 6 mps 753 mmHg 84%
    07:00 +22°C° 0.1 mm 6 mps 753 mmHg 77%
    08:00 +23°C° 0.1 mm 6 mps 753 mmHg 71%
    09:00 +24°C° 0.1 mm 6 mps 753 mmHg 65%
    10:00 +26°C° 0 mm 6 mps 753 mmHg 61%
    11:00 +27°C° 0 mm 7 mps 753 mmHg 58%
    12:00 +28°C° 0 mm 7 mps 753 mmHg 54%
    13:00 +28°C° 0 mm 7 mps 752 mmHg 55%
    14:00 +28°C° 0 mm 7 mps 752 mmHg 56%
    15:00 +27°C° 0 mm 7 mps 751 mmHg 57%
    16:00 +26°C° 0.1 mm 6 mps 751 mmHg 60%
    17:00 +26°C° 0.1 mm 6 mps 751 mmHg 63%
    18:00 +25°C° 0.1 mm 5 mps 751 mmHg 66%
    19:00 +23°C° 0 mm 4 mps 752 mmHg 70%
    20:00 +22°C° 0 mm 4 mps 752 mmHg 73%
    21:00 +22°C° 0 mm 3 mps 753 mmHg 76%
    22:00 +21°C° 0 mm 3 mps 753 mmHg 78%
    23:00 +21°C° 0 mm 3 mps 753 mmHg 80%

    29 May, Friday

    Time Temperature Precipitation Wind Pressure Humidity
    00:00 +21°C° 0 mm 3 mps 753 mmHg 81%
    01:00 +20°C° 0 mm 3 mps 752 mmHg 82%
    02:00 +20°C° 0 mm 3 mps 752 mmHg 83%
    03:00 +20°C° 0 mm 3 mps 751 mmHg 84%
    04:00 +20°C° 0 mm 3 mps 751 mmHg 84%
    05:00 +20°C° 0 mm 3 mps 751 mmHg 83%
    06:00 +20°C° 0 mm 3 mps 751 mmHg 82%
    07:00 +21°C° 0 mm 3 mps 751 mmHg 78%
    08:00 +22°C° 0 mm 3 mps 751 mmHg 73%
    09:00 +24°C° 0 mm 3 mps 751 mmHg 68%
    10:00 +25°C° 0 mm 4 mps 751 mmHg 64%
    11:00 +27°C° 0 mm 4 mps 751 mmHg 60%
    12:00 +28°C° 0 mm 5 mps 751 mmHg 56%
    13:00 +28°C° 0 mm 5 mps 751 mmHg 56%
    14:00 +28°C° 0 mm 5 mps 750 mmHg 55%
    15:00 +28°C° 0 mm 6 mps 750 mmHg 55%
    16:00 +28°C° 0 mm 6 mps 750 mmHg 56%
    17:00 +27°C° 0 mm 6 mps 749 mmHg 57%
    18:00 +26°C° 0 mm 5 mps 749 mmHg 58%
    19:00 +25°C° 0 mm 5 mps 749 mmHg 60%
    20:00 +23°C° 0 mm 4 mps 750 mmHg 61%
    21:00 +22°C° 0 mm 3 mps 750 mmHg 63%
    22:00 +23°C° 0 mm 2 mps 750 mmHg 66%
    23:00 +21°C° 0 mm 2 mps 750 mmHg 68%

    30 May, Saturday

    Time Temperature Precipitation Wind Pressure Humidity
    00:00 +21°C° 0 mm 2 mps 750 mmHg 71%
    01:00 +20°C° 0 mm 2 mps 750 mmHg 75%
    02:00 +20°C° 0 mm 2 mps 750 mmHg 78%
    03:00 +20°C° 0 mm 2 mps 749 mmHg 81%
    04:00 +21°C° 0 mm 1 mps 750 mmHg 81%
    05:00 +21°C° 0 mm 1 mps 750 mmHg 80%
    06:00 +21°C° 0 mm 1 mps 750 mmHg 79%
    07:00 +22°C° 0 mm 1 mps 750 mmHg 70%
    08:00 +24°C° 0 mm 1 mps 750 mmHg 61%
    09:00 +25°C° 0 mm 1 mps 750 mmHg 52%
    10:00 +27°C° 0 mm 2 mps 750 mmHg 47%
    11:00 +28°C° 0 mm 2 mps 750 mmHg 42%
    12:00 +30°C° 0 mm 3 mps 750 mmHg 37%
    13:00 +30°C° 0 mm 3 mps 750 mmHg 36%
    14:00 +30°C° 0 mm 4 mps 749 mmHg 36%
    15:00 +32°C° 0 mm 4 mps 749 mmHg 36%
    16:00 +30°C° 0 mm 4 mps 749 mmHg 37%
    17:00 +29°C° 0 mm 4 mps 749 mmHg 38%
    18:00 +29°C° 0 mm 4 mps 749 mmHg 39%
    19:00 +27°C° 0 mm 4 mps 749 mmHg 40%
    20:00 +26°C° 0 mm 3 mps 749 mmHg 41%
    21:00 +25°C° 0 mm 3 mps 750 mmHg 42%
    22:00 +25°C° 0 mm 2 mps 750 mmHg 44%
    23:00 +24°C° 0 mm 2 mps 750 mmHg 45%
    Show more